Location: Barletta
(41.3170°N, 16.2830°E)
Time: 03:04:02
(UTC+02:00)

ISS - Pass Details

Date: 16 May 2021
Orbit: 417 x 422 km, 51.6° (Epoch: 14 June)

Event Time Altitude Azimuth Distance (km) Brightness Sun altitude
Rises 04:30:30 0° 298° (WNW) 2,372 -0.2 -11.1°
Reaches altitude 10° 04:32:44 10° 288° (WNW) 1,505 -1.3 -10.8°
Maximum altitude 04:35:47 32° 224° (SW) 751 -3.0 -10.3°
Drops below altitude 10° 04:38:49 10° 159° (SSE) 1,498 -1.1 -9.9°
Sets 04:41:02 0° 149° (SSE) 2,358 0.0 -9.5°
